| time (UTC) | temp F | wind direction | speed knots | gust knots | rain 1hr in | rain 24hr in | rain mn in | humidity % | barometer mb |
| 20260831233017 | 88 | 242 | 0.0 | 2.6 | 0.00 | 0.00 | 0.00 | 67 | 1008.0 |
| 20260831231520 | 88 | 268 | 0.0 | 2.6 | 0.00 | 0.00 | 0.00 | 66 | 1008.1 |
| 20260831230016 | 90 | 157 | 0.0 | 4.3 | 0.00 | 0.00 | 0.00 | 61 | 1007.9 |
| 20260831224514 | 90 | 125 | 0.0 | 4.3 | 0.00 | 0.00 | 0.00 | 63 | 1007.9 |
| 20260831223013 | 90 | 93 | 0.0 | 4.3 | 0.00 | 0.00 | 0.00 | 62 | 1007.9 |
| 20260831221526 | 89 | 130 | 0.0 | 6.1 | 0.00 | 0.00 | 0.00 | 64 | 1007.8 |
| 20260831220010 | 92 | 111 | 0.9 | 4.3 | 0.00 | 0.00 | 0.00 | 60 | 1007.8 |
| 20260831214527 | 92 | 92 | 0.0 | 2.6 | 0.00 | 0.00 | 0.00 | 61 | 1007.7 |
| 20260831213007 | 92 | 116 | 0.0 | 4.3 | 0.00 | 0.00 | 0.00 | 60 | 1007.7 |
| 20260831211507 | 92 | 140 | 0.0 | 3.5 | 0.00 | 0.00 | 0.00 | 59 | 1007.5 |
| 20260831210005 | 92 | 205 | 0.0 | 5.2 | 0.00 | 0.00 | 0.00 | 59 | 1007.5 |
| 20260831204603 | 91 | 132 | 0.0 | 6.1 | 0.00 | 0.00 | 0.00 | 62 | 1007.5 |
| 20260831203058 | 91 | 71 | 0.0 | 1.7 | 0.00 | 0.00 | 0.00 | 62 | 1007.5 |
| 20260831201556 | 90 | 123 | 0.0 | 0.0 | 0.00 | 0.00 | 0.00 | 61 | 1007.6 |
| 20260831200052 | 90 | 159 | 0.0 | 4.3 | 0.00 | 0.00 | 0.00 | 65 | 1007.6 |
| 20260831194549 | 89 | 355 | 0.0 | 0.0 | 0.00 | 0.00 | 0.00 | 64 | 1007.5 |
| 20260831193045 | 87 | 111 | 0.0 | 0.0 | 0.00 | 0.00 | 0.00 | 65 | 1007.7 |
| 20260831191543 | 87 | 149 | 0.0 | 0.0 | 0.00 | 0.00 | 0.00 | 68 | 1007.7 |
| 20260831190100 | 87 | 97 | 0.0 | 0.0 | 0.00 | 0.00 | 0.00 | 67 | 1007.8 |
| 20260831184543 | 88 | 99 | 0.0 | 0.9 | 0.00 | 0.00 | 0.00 | 67 | 1007.9 |
| 20260831183049 | 86 | 138 | 0.0 | 0.0 | 0.00 | 0.00 | 0.00 | 67 | 1007.8 |
| 20260831181536 | 87 | 88 | 0.0 | 0.0 | 0.00 | 0.00 | 0.00 | 68 | 1007.8 |
| 20260831180002 | 85 | 205 | 0.0 | 0.0 | 0.00 | 0.00 | 0.00 | 68 | 1008.0 |
| 20260831174608 | 85 | 261 | 0.0 | 0.0 | 0.00 | 0.00 | 0.00 | 71 | 1007.9 |
| 20260831173058 | 84 | 271 | 0.0 | 3.5 | 0.00 | 0.00 | 0.00 | 72 | 1008.1 |
| 20260831171555 | 85 | 271 | 0.0 | 3.5 | 0.00 | 0.00 | 0.00 | 71 | 1008.2 |
| 20260831170052 | 85 | 355 | 0.0 | 0.0 | 0.00 | 0.00 | 0.00 | 70 | 1008.2 |
| 20260831164602 | 85 | 81 | 0.0 | 0.0 | 0.00 | 0.00 | 0.00 | 70 | 1008.1 |
| 20260831163046 | 85 | 107 | 0.0 | 0.0 | 0.00 | 0.00 | 0.00 | 69 | 1008.0 |
| 20260831161540 | 84 | 106 | 0.0 | 0.0 | 0.00 | 0.00 | 0.00 | 70 | 1007.8 |
| 20260831160043 | 85 | 122 | 0.0 | 0.0 | 0.00 | 0.00 | 0.00 | 68 | 1007.7 |
| 20260831154539 | 84 | 97 | 0.0 | 0.9 | 0.00 | 0.00 | 0.00 | 70 | 1007.5 |
| 20260831153033 | 83 | 346 | 0.0 | 1.7 | 0.00 | 0.00 | 0.00 | 73 | 1007.5 |
| 20260831151537 | 81 | 273 | 0.0 | 1.7 | 0.00 | 0.00 | 0.00 | 74 | 1007.4 |
| 20260831150032 | 81 | 252 | 0.0 | 2.6 | 0.00 | 0.00 | 0.00 | 74 | 1007.1 |
| 20260831144531 | 81 | 296 | 0.0 | 0.9 | 0.00 | 0.00 | 0.00 | 77 | 1007.2 |
| 20260831143030 | 79 | 265 | 0.0 | 0.9 | 0.00 | 0.00 | 0.00 | 78 | 1007.0 |
| 20260831141529 | 78 | 313 | 0.0 | 0.9 | 0.00 | 0.00 | 0.00 | 81 | 1006.8 |
| 20260831140037 | 78 | 214 | 0.0 | 0.0 | 0.00 | 0.00 | 0.00 | 79 | 1006.8 |
| 20260831134529 | 77 | 172 | 0.0 | 0.0 | 0.00 | 0.00 | 0.00 | 80 | 1006.6 |
| 20260831133025 | 75 | 171 | 0.0 | 0.0 | 0.00 | 0.00 | 0.00 | 85 | 1006.7 |
| 20260831131536 | 74 | 161 | 0.0 | 0.0 | 0.00 | 0.00 | 0.00 | 86 | 1006.6 |
| 20260831130034 | 73 | 196 | 0.0 | 0.0 | 0.00 | 0.00 | 0.00 | 86 | 1006.6 |
| 20260831124526 | 72 | 217 | 0.0 | 0.0 | 0.00 | 0.00 | 0.00 | 89 | 1006.5 |
| 20260831123020 | 70 | 217 | 0.0 | 0.0 | 0.00 | 0.00 | 0.00 | 90 | 1006.3 |
| 20260831121520 | 69 | 217 | 0.0 | 0.0 | 0.00 | 0.00 | 0.00 | 91 | 1006.1 |
| 20260831120025 | 69 | 250 | 0.0 | 0.0 | 0.00 | 0.00 | 0.00 | 90 | 1006.0 |
| 20260831114519 | 69 | 250 | 0.0 | 0.0 | 0.00 | 0.00 | 0.00 | 90 | 1005.7 |
| 20260831113018 | 69 | 250 | 0.0 | 0.0 | 0.00 | 0.00 | 0.00 | 90 | 1005.7 |
| 20260831111516 | 71 | 259 | 0.0 | 0.0 | 0.00 | 0.00 | 0.00 | 89 | 1005.8 |
| 20260831110012 | 71 | 150 | 0.0 | 0.0 | 0.00 | 0.00 | 0.00 | 89 | 1005.5 |
| 20260831104512 | 70 | 214 | 0.0 | 0.0 | 0.00 | 0.00 | 0.00 | 90 | 1005.7 |
| 20260831103011 | 70 | 122 | 0.0 | 0.0 | 0.00 | 0.00 | 0.00 | 89 | 1005.6 |
| 20260831101511 | 71 | 186 | 0.0 | 3.5 | 0.00 | 0.00 | 0.00 | 89 | 1005.7 |
| 20260831100008 | 71 | 223 | 0.0 | 0.0 | 0.00 | 0.00 | 0.00 | 90 | 1005.7 |
| 20260831094507 | 70 | 86 | 0.0 | 0.0 | 0.00 | 0.00 | 0.00 | 88 | 1005.6 |
| 20260831093007 | 70 | 278 | 0.0 | 0.0 | 0.00 | 0.00 | 0.00 | 88 | 1005.7 |
| 20260831091505 | 71 | 241 | 0.0 | 0.0 | 0.00 | 0.00 | 0.00 | 89 | 1005.7 |
| 20260831090004 | 71 | 146 | 0.0 | 0.0 | 0.00 | 0.00 | 0.00 | 89 | 1005.8 |
| 20260831084508 | 71 | 200 | 0.0 | 0.0 | 0.00 | 0.00 | 0.00 | 88 | 1005.8 |
| 20260831083003 | 71 | 185 | 0.0 | 0.0 | 0.00 | 0.00 | 0.00 | 88 | 1005.7 |
| 20260831081533 | 71 | 210 | 0.0 | 0.0 | 0.00 | 0.00 | 0.00 | 87 | 1005.6 |
| 20260831080039 | 70 | 188 | 0.0 | 0.0 | 0.00 | 0.00 | 0.00 | 86 | 1005.7 |
| 20260831074502 | 71 | 161 | 0.0 | 0.0 | 0.00 | 0.00 | 0.00 | 87 | 1005.7 |
| 20260831073002 | 71 | 171 | 0.0 | 0.0 | 0.00 | 0.00 | 0.00 | 87 | 1005.9 |
| 20260831071534 | 71 | 171 | 0.0 | 0.0 | 0.00 | 0.00 | 0.00 | 86 | 1006.0 |
| 20260831070027 | 71 | 166 | 0.0 | 0.0 | 0.00 | 0.00 | 0.00 | 86 | 1006.2 |
| 20260831064525 | 71 | 206 | 0.0 | 0.0 | 0.00 | 0.00 | 0.00 | 86 | 1006.3 |
| 20260831063025 | 71 | 234 | 0.0 | 0.0 | 0.00 | 0.00 | 0.00 | 86 | 1006.4 |
| 20260831061529 | 71 | 232 | 0.0 | 0.0 | 0.00 | 0.00 | 0.00 | 85 | 1006.6 |
| 20260831060022 | 71 | 180 | 0.0 | 0.0 | 0.00 | 0.00 | 0.00 | 85 | 1006.7 |
| 20260831054519 | 71 | 234 | 0.0 | 0.0 | 0.00 | 0.00 | 0.00 | 85 | 1006.9 |
| 20260831053027 | 71 | 264 | 0.0 | 0.0 | 0.00 | 0.00 | 0.00 | 84 | 1007.0 |
| 20260831051517 | 71 | 175 | 0.0 | 0.0 | 0.00 | 0.00 | 0.00 | 84 | 1007.0 |
| 20260831050025 | 72 | 219 | 0.0 | 0.0 | 0.00 | 0.00 | 0.00 | 84 | 1007.1 |
| 20260831044511 | 72 | 169 | 0.0 | 0.0 | 0.00 | 0.00 | 0.00 | 83 | 1007.3 |
| 20260831043009 | 72 | 188 | 0.0 | 0.0 | 0.00 | 0.00 | 0.00 | 82 | 1007.3 |
| 20260831041508 | 72 | 200 | 0.0 | 0.0 | 0.00 | 0.00 | 0.00 | 82 | 1007.2 |
| 20260831040005 | 72 | 193 | 0.0 | 2.6 | 0.00 | 0.00 | 0.00 | 81 | 1007.5 |
| 20260831034600 | 73 | 189 | 0.0 | 0.9 | 0.00 | 0.00 | 0.00 | 81 | 1007.1 |
| 20260831033058 | 73 | 229 | 0.0 | 6.1 | 0.00 | 0.00 | 0.00 | 81 | 1007.3 |
| 20260831031556 | 73 | 134 | 0.0 | 0.9 | 0.00 | 0.00 | 0.00 | 81 | 1007.3 |
| 20260831030056 | 73 | 202 | 0.0 | 3.5 | 0.00 | 0.00 | 0.00 | 80 | 1007.5 |
| 20260831024550 | 74 | 168 | 0.0 | 7.0 | 0.00 | 0.00 | 0.00 | 79 | 1007.8 |
| 20260831023046 | 74 | 218 | 2.6 | 9.6 | 0.00 | 0.00 | 0.00 | 78 | 1007.8 |
| 20260831021544 | 75 | 194 | 0.0 | 7.0 | 0.00 | 0.00 | 0.00 | 77 | 1007.9 |
| 20260831020047 | 75 | 201 | 1.7 | 7.8 | 0.00 | 0.00 | 0.00 | 76 | 1007.8 |
| 20260831014537 | 76 | 164 | 1.7 | 7.0 | 0.00 | 0.00 | 0.00 | 75 | 1007.7 |
| 20260831013035 | 76 | 254 | 0.9 | 6.1 | 0.00 | 0.00 | 0.00 | 74 | 1007.4 |
| 20260831011538 | 77 | 196 | 0.0 | 8.7 | 0.00 | 0.00 | 0.00 | 72 | 1007.1 |
| 20260831010030 | 78 | 230 | 1.7 | 8.7 | 0.00 | 0.00 | 0.00 | 70 | 1007.0 |
| 20260831004527 | 78 | 152 | 1.7 | 6.1 | 0.00 | 0.00 | 0.00 | 69 | 1007.1 |
| 20260831003035 | 79 | 175 | 2.6 | 7.8 | 0.00 | 0.00 | 0.00 | 67 | 1007.0 |
| 20260831001525 | 80 | 229 | 3.5 | 14.8 | 0.00 | 0.00 | 0.00 | 65 | 1007.0 |
| 20260831000026 | 81 | 251 | 0.0 | 7.0 | 0.00 | 0.00 | 0.00 | 67 | 1007.0 |
| 20260830234535 | 81 | 192 | 0.9 | 6.1 | 0.00 | 0.00 | 0.00 | 67 | 1006.9 |